Weather History for Fulton, NY

Change the Weather History Date:

Sunday, December 22, 2013

  Actual Average (KSYR) Record (KSYR)
Temperature  
Mean Temperature 36 °F 27 °F  
Max Temperature 39 °F 34 °F 66 °F (1949)
Min Temperature 32 °F 20 °F -13 °F (1989)
Degree Days  
Heating Degree Days 30 38  
Month to date heating degree days 752  
Since 1 July heating degree days 2101  
Cooling Degree Days 0 0  
Month to date cooling degree days 0  
Year to date cooling degree days 569  
Moisture  
Dew Point 33 °F    
Average Humidity 91    
Maximum Humidity 93    
Minimum Humidity 86    
Precipitation  
Precipitation 0.20 in 0.10 in 0.78 in (2006)
Month to date precipitation 2.36  
Year to date precipitation 37.61  
Snow  
Snow 0.00 in 1.00 in 13.50 in (2008)
Month to date snowfall 22.9  
Since 1 July snowfall 32.8  
Snow Depth -    
Sea Level Pressure  
Sea Level Pressure 29.74 in    
Wind  
Wind Speed 5 mph (NW)    
Max Wind Speed 13 mph    
Max Gust Speed 24 mph    
Visibility 5 miles    
Events Rain    
T = Trace of Precipitation, MM = Missing Value Source: NWS Daily Summary

Daily Weather History Graph

Daily Weather History Graph

Search for Another Location

Airport:

Trip Planner

Search our weather history database for the weather conditions in past years. The results will help you decide how hot, cold, wet, or windy it might be!

Date:

Astronomy

Dec. 22, 2013 Rise Set
Actual Time 7:35 AM EST 4:33 PM EST
Civil Twilight 7:02 AM EST 5:05 PM EST
Nautical Twilight 6:26 AM EST 5:42 PM EST
Astronomical Twilight 5:51 AM EST 6:16 PM EST
Moon 9:52 PM EST (12/22) 10:23 AM EST (12/22)
Length of Visible Light 10h 03m
Length of Day
8h 57m
Waning Gibbous, 77% of the Moon is Illuminated
Dec 22
Waning Gibbous
Dec 25
Last Quarter
Jan 1
New
Jan 7
First Quarter
Jan 15
Full

Hourly Weather History & Observations

Time (EST) Temp. Windchill Dew Point Humidity Pressure Visibility Wind Dir Wind Speed Gust Speed Precip Events Conditions
12:47 AM 32.0 °F 26.4 °F 30.2 °F 93% 29.78 in 6.0 mi North 5.8 mph - 0.03 in Rain Light Freezing Rain
12:54 AM 32.0 °F 24.8 °F 28.9 °F 88% 29.78 in 7.0 mi NNE 8.1 mph - 0.03 in Rain Light Freezing Rain
1:25 AM 32.0 °F 27.5 °F 30.2 °F 93% 29.75 in 4.0 mi NNE 4.6 mph - 0.03 in Rain Light Freezing Rain
1:33 AM 32.0 °F 28.7 °F 30.2 °F 93% 29.76 in 5.0 mi North 3.5 mph - 0.04 in Rain Light Freezing Rain
1:40 AM 32.0 °F 28.7 °F 30.2 °F 93% 29.73 in 3.0 mi NE 3.5 mph - 0.06 in Rain Light Freezing Rain
1:54 AM 32.0 °F - 30.0 °F 92% 29.74 in 4.0 mi Calm Calm - 0.08 in Rain Light Freezing Rain
2:10 AM 32.0 °F 28.7 °F 30.2 °F 93% 29.67 in 5.0 mi East 3.5 mph - 0.02 in   Overcast
2:54 AM 33.1 °F 30.0 °F 30.9 °F 92% 29.65 in 10.0 mi NE 3.5 mph - 0.03 in   Overcast
3:35 AM 33.8 °F 30.8 °F 30.2 °F 87% 29.63 in 9.0 mi NNW 3.5 mph - N/A   Overcast
3:54 AM 33.1 °F 26.9 °F 30.0 °F 89% 29.63 in 7.0 mi NNW 6.9 mph - N/A   Overcast
4:54 AM 32.0 °F 23.0 °F 30.0 °F 92% 29.62 in 6.0 mi WNW 11.5 mph 16.1 mph 0.00 in   Overcast
5:36 AM 32.0 °F 23.6 °F 30.2 °F 93% 29.65 in 5.0 mi WNW 10.4 mph 24.2 mph 0.01 in Rain Light Freezing Rain
5:50 AM 33.8 °F 29.6 °F 30.2 °F 87% 29.65 in 6.0 mi Variable 4.6 mph - 0.02 in Rain Light Freezing Rain
5:54 AM 33.1 °F - 30.9 °F 92% 29.65 in 9.0 mi Calm Calm - 0.02 in Rain Light Freezing Rain
6:29 AM 33.8 °F 29.6 °F 30.2 °F 87% 29.67 in 10.0 mi SW 4.6 mph - 0.00 in Rain Light Freezing Rain
6:39 AM 33.8 °F 29.6 °F 30.2 °F 87% 29.66 in 9.0 mi SW 4.6 mph - 0.00 in   Overcast
6:54 AM 33.1 °F 26.9 °F 30.9 °F 92% 29.69 in 7.0 mi SW 6.9 mph - 0.00 in   Overcast
7:16 AM 33.8 °F 26.4 °F 30.2 °F 87% 29.69 in 7.0 mi SW 9.2 mph - N/A   Overcast
7:54 AM 33.1 °F 27.7 °F 30.9 °F 92% 29.72 in 5.0 mi WSW 5.8 mph - N/A   Overcast
8:54 AM 33.1 °F - 30.9 °F 92% 29.74 in 3.0 mi Calm Calm - N/A   Overcast
9:12 AM 33.8 °F - 30.2 °F 87% 29.73 in 2.5 mi Calm Calm - N/A   Overcast
9:39 AM 33.8 °F 30.8 °F 30.2 °F 87% 29.67 in 1.0 mi East 3.5 mph - N/A   Overcast
9:54 AM 33.1 °F 28.7 °F 30.9 °F 92% 29.68 in 1.2 mi ESE 4.6 mph - N/A   Overcast
9:58 AM 33.8 °F 28.6 °F 30.2 °F 87% 29.63 in 0.8 mi East 5.8 mph - N/A   Overcast
10:17 AM 33.8 °F 30.8 °F 32.0 °F 93% 29.68 in 1.2 mi NNW 3.5 mph - N/A   Overcast
10:37 AM 33.8 °F 30.8 °F 32.0 °F 93% 29.68 in 0.8 mi Variable 3.5 mph - N/A   Overcast
10:49 AM 33.8 °F 30.8 °F 32.0 °F 93% 29.71 in 1.2 mi WNW 3.5 mph - N/A   Overcast
10:54 AM 34.0 °F 28.8 °F 32.0 °F 92% 29.70 in 1.2 mi North 5.8 mph - N/A   Overcast
10:58 AM 33.8 °F 29.6 °F 32.0 °F 93% 29.67 in 0.8 mi NNE 4.6 mph - N/A   Overcast
11:42 AM 33.8 °F 30.8 °F 32.0 °F 93% 29.66 in 1.2 mi East 3.5 mph - N/A   Overcast
11:54 AM 34.0 °F 31.0 °F 32.0 °F 92% 29.66 in 2.0 mi SE 3.5 mph - N/A   Overcast
12:12 PM 33.8 °F 29.6 °F 32.0 °F 93% 29.64 in 3.0 mi SE 4.6 mph - N/A   Overcast
12:54 PM 36.0 °F - 34.0 °F 93% 29.65 in 5.0 mi North - - 0.01 in   Overcast
1:46 PM 35.6 °F 31.7 °F 33.8 °F 93% 29.65 in 2.5 mi North 4.6 mph - N/A   Overcast
1:54 PM 35.1 °F 30.1 °F 33.1 °F 92% 29.67 in 2.0 mi North 5.8 mph - N/A   Overcast
2:35 PM 35.6 °F 30.7 °F 33.8 °F 93% 29.68 in 3.0 mi NW 5.8 mph - N/A   Overcast
2:54 PM 34.0 °F 25.0 °F 32.0 °F 92% 29.73 in 3.0 mi NW 12.7 mph - N/A   Overcast
3:15 PM 35.6 °F - 33.8 °F 93% 29.71 in 4.0 mi Calm Calm - 0.00 in   Overcast
3:35 PM 35.6 °F - 33.8 °F 93% 29.73 in 2.5 mi Calm Calm - 0.00 in Rain Light Rain
3:42 PM 35.6 °F - 33.8 °F 93% 29.73 in 4.0 mi Calm Calm - 0.00 in Rain Light Rain
3:54 PM 35.1 °F 32.2 °F 33.1 °F 92% 29.76 in 4.0 mi South 3.5 mph - 0.00 in Rain Light Rain
4:03 PM 35.6 °F - 33.8 °F 93% 29.75 in 1.8 mi Calm Calm - 0.01 in Rain Light Rain
4:14 PM 35.6 °F - 33.8 °F 93% 29.76 in 2.5 mi Calm Calm - 0.01 in Rain Light Rain
4:28 PM 37.4 °F 34.9 °F 35.6 °F 93% 29.77 in 5.0 mi South 3.5 mph - 0.01 in Rain Light Rain
4:54 PM 36.0 °F 32.1 °F 34.0 °F 93% 29.81 in 3.0 mi South 4.6 mph - 0.03 in Rain Light Rain
5:01 PM 37.4 °F - 33.8 °F 87% 29.80 in 3.0 mi Calm Calm - 0.00 in Rain Light Rain
5:26 PM 37.4 °F - 35.6 °F 93% 29.80 in 4.0 mi Calm Calm - 0.00 in Rain Light Rain
5:54 PM 39.0 °F 34.0 °F 36.0 °F 89% 29.84 in 7.0 mi West 6.9 mph - 0.00 in   Overcast
6:54 PM 39.0 °F 35.7 °F 36.0 °F 89% 29.87 in 10.0 mi WNW 4.6 mph - N/A   Overcast
7:04 PM 39.2 °F 35.9 °F 35.6 °F 87% 29.87 in 10.0 mi WNW 4.6 mph - N/A   Overcast
7:39 PM 37.4 °F 34.9 °F 35.6 °F 93% 29.89 in 10.0 mi West 3.5 mph - N/A   Overcast
7:54 PM 37.9 °F - 36.0 °F 93% 29.91 in 10.0 mi Calm Calm - N/A   Overcast
8:24 PM 37.4 °F - 35.6 °F 93% 29.91 in 7.0 mi Calm Calm - N/A   Overcast
8:54 PM 39.0 °F 34.8 °F 36.0 °F 89% 29.94 in 10.0 mi West 5.8 mph - N/A   Overcast
9:54 PM 39.9 °F 35.1 °F 37.0 °F 89% 29.98 in 10.0 mi West 6.9 mph - N/A   Overcast
10:02 PM 39.2 °F 34.2 °F 37.4 °F 93% 29.96 in 10.0 mi West 6.9 mph - N/A   Overcast
10:54 PM 39.9 °F 36.7 °F 36.0 °F 86% 29.98 in 10.0 mi WSW 4.6 mph - N/A   Overcast
11:54 PM 39.0 °F 36.8 °F 36.0 °F 89% 29.99 in 10.0 mi SW 3.5 mph - N/A   Overcast